Satellite: NOAA-10 Catalog number: 16969 Epoch time: 11208.72420676 Element set: 5817 Inclination: 098.6175 deg RA of node: 237.9572 deg Eccentricity: 0.0013105 Arg of perigee: 105.7959 deg Mean anomaly: 254.4637 deg Mean motion: 14.27469508 rev/day Decay rate: -8.6e-07 rev/day^2 Epoch rev: 29343 Checksum: 340
Satellite: NOAA-11 Catalog number: 19531 Epoch time: 11208.86164493 Element set: 0581 Inclination: 098.7516 deg RA of node: 295.5554 deg Eccentricity: 0.0011976 Arg of perigee: 073.5117 deg Mean anomaly: 286.7365 deg Mean motion: 14.14921605 rev/day Decay rate: 2.67e-06 rev/day^2 Epoch rev: 17850 Checksum: 323
Satellite: NOAA-12 Catalog number: 21263 Epoch time: 11208.93114130 Element set: 0092 Inclination: 098.7508 deg RA of node: 226.7034 deg Eccentricity: 0.0013436 Arg of perigee: 068.9469 deg Mean anomaly: 291.3146 deg Mean motion: 14.25727289 rev/day Decay rate: 5.4e-07 rev/day^2 Epoch rev: 05021 Checksum: 283
Satellite: MET-3/5 Catalog number: 21655 Epoch time: 11208.85305792 Element set: 168 Inclination: 082.5563 deg RA of node: 022.0359 deg Eccentricity: 0.0014618 Arg of perigee: 058.4444 deg Mean anomaly: 301.8116 deg Mean motion: 13.17027408 rev/day Decay rate: 5.1e-07 rev/day^2 Epoch rev: 95907 Checksum: 292
Satellite: MET-2/21 Catalog number: 22782 Epoch time: 11208.75157120 Element set: 0161 Inclination: 082.5493 deg RA of node: 290.6978 deg Eccentricity: 0.0022210 Arg of perigee: 349.3934 deg Mean anomaly: 010.6739 deg Mean motion: 13.83660428 rev/day Decay rate: -1.11e-06 rev/day^2 Epoch rev: 90416 Checksum: 289
Satellite: OKEAN-4 Catalog number: 23317 Epoch time: 11208.91501376 Element set: 0687 Inclination: 082.5407 deg RA of node: 335.1036 deg Eccentricity: 0.0021765 Arg of perigee: 349.6474 deg Mean anomaly: 010.4288 deg Mean motion: 14.83112543 rev/day Decay rate: 2.83e-06 rev/day^2 Epoch rev: 90658 Checksum: 296
Satellite: NOAA-14 Catalog number: 23455 Epoch time: 11208.94052980 Element set: 0580 Inclination: 098.8503 deg RA of node: 291.1698 deg Eccentricity: 0.0009492 Arg of perigee: 159.1106 deg Mean anomaly: 201.0452 deg Mean motion: 14.13825862 rev/day Decay rate: -3.0e-07 rev/day^2 Epoch rev: 85483 Checksum: 299
Satellite: NOAA-15 Catalog number: 25338 Epoch time: 11208.75151834 Element set: 0899 Inclination: 098.6570 deg RA of node: 194.3428 deg Eccentricity: 0.0010373 Arg of perigee: 340.2987 deg Mean anomaly: 019.7758 deg Mean motion: 14.24935155 rev/day Decay rate: 9.0e-08 rev/day^2 Epoch rev: 68650 Checksum: 334
Satellite: RESURS Catalog number: 25394 Epoch time: 11208.92458661 Element set: 0864 Inclination: 098.3021 deg RA of node: 209.7062 deg Eccentricity: 0.0002297 Arg of perigee: 093.9787 deg Mean anomaly: 266.1657 deg Mean motion: 14.24235221 rev/day Decay rate: -4.6e-07 rev/day^2 Epoch rev: 67810 Checksum: 308
Satellite: FENGYUN1 Catalog number: 25730 Epoch time: 11208.87056271 Element set: 0396 Inclination: 098.8189 deg RA of node: 169.1736 deg Eccentricity: 0.0022084 Arg of perigee: 197.9011 deg Mean anomaly: 162.1400 deg Mean motion: 14.08707561 rev/day Decay rate: 7.68e-06 rev/day^2 Epoch rev: 62879 Checksum: 319
Satellite: OKEAN-0 Catalog number: 25860 Epoch time: 11208.96538036 Element set: 0373 Inclination: 097.8879 deg RA of node: 174.2960 deg Eccentricity: 0.0000771 Arg of perigee: 104.8363 deg Mean anomaly: 255.2927 deg Mean motion: 14.73808709 rev/day Decay rate: 1.70e-06 rev/day^2 Epoch rev: 64666 Checksum: 328
Satellite: NOAA-16 Catalog number: 26536 Epoch time: 11208.73282136 Element set: 0381 Inclination: 099.1384 deg RA of node: 240.0942 deg Eccentricity: 0.0009702 Arg of perigee: 279.6302 deg Mean anomaly: 080.3777 deg Mean motion: 14.12631932 rev/day Decay rate: -1.15e-06 rev/day^2 Epoch rev: 55908 Checksum: 296
Satellite: NOAA-17 Catalog number: 27453 Epoch time: 11208.71083474 Element set: 0367 Inclination: 098.3770 deg RA of node: 246.5558 deg Eccentricity: 0.0012229 Arg of perigee: 035.3724 deg Mean anomaly: 324.8270 deg Mean motion: 14.24295942 rev/day Decay rate: 1.99e-06 rev/day^2 Epoch rev: 47242 Checksum: 316
Satellite: NOAA-18 Catalog number: 28654 Epoch time: 11208.71792371 Element set: 0847 Inclination: 098.9969 deg RA of node: 159.9691 deg Eccentricity: 0.0014422 Arg of perigee: 354.8662 deg Mean anomaly: 005.2360 deg Mean motion: 14.11495462 rev/day Decay rate: 1.39e-06 rev/day^2 Epoch rev: 31864 Checksum: 337
Satellite: NOAA-19 Catalog number: 33591 Epoch time: 11208.72409776 Element set: 0038 Inclination: 098.8265 deg RA of node: 148.1999 deg Eccentricity: 0.0013343 Arg of perigee: 219.6498 deg Mean anomaly: 140.3688 deg Mean motion: 14.11187660 rev/day Decay rate: 5.2e-07 rev/day^2 Epoch rev: 12710 Checksum: 322
/EX SB KEPS @ AMSAT $ORB11209.M Orbital Elements 11209.MISC
HR AMSAT ORBITAL ELEMENTS FOR MANNED AND MISCELLANEOUS SATELLITES FROM WA5QGD FORT WORTH,TX July 28, 2011 Send Subscribe/unsubscribe to KEPS at http://www.amsat.org/mailman/listinfo/keps BID: ORB11209.M TO ALL RADIO AMATEURS BT
Satellite: HUBBLE Catalog number: 20580 Epoch time: 11208.86612112 Element set: 806 Inclination: 028.4694 deg RA of node: 110.7059 deg Eccentricity: 0.0003629 Arg of perigee: 194.0668 deg Mean anomaly: 165.9800 deg Mean motion: 15.01434462 rev/day Decay rate: 7.21e-06 rev/day^2 Epoch rev: 96577 Checksum: 290
Satellite: ISS Catalog number: 25544 Epoch time: 11209.79583769 Element set: 793 Inclination: 051.6416 deg RA of node: 311.2921 deg Eccentricity: 0.0011950 Arg of perigee: 016.6266 deg Mean anomaly: 126.9231 deg Mean motion: 15.60217330 rev/day Decay rate: 4.887e-05 rev/day^2 Epoch rev: 72740 Checksum: 298
Satellite: CO-58 Catalog number: 28895 Epoch time: 11208.63397388 Element set: 0934 Inclination: 097.9598 deg RA of node: 083.4487 deg Eccentricity: 0.0019020 Arg of perigee: 093.9043 deg Mean anomaly: 266.4336 deg Mean motion: 14.60137896 rev/day Decay rate: 2.15e-06 rev/day^2 Epoch rev: 30614 Checksum: 348
Satellite: FALCON Catalog number: 30776 Epoch time: 11209.84466032 Element set: 137 Inclination: 035.4331 deg RA of node: 093.6543 deg Eccentricity: 0.0000932 Arg of perigee: 023.7106 deg Mean anomaly: 336.3633 deg Mean motion: 15.04779051 rev/day Decay rate: 1.276e-05 rev/day^2 Epoch rev: 24132 Checksum: 264
Satellite: MAST Catalog number: 31126 Epoch time: 11208.91949702 Element set: 0220 Inclination: 097.8938 deg RA of node: 233.8403 deg Eccentricity: 0.0095537 Arg of perigee: 044.3034 deg Mean anomaly: 316.5779 deg Mean motion: 14.53777165 rev/day Decay rate: 2.96e-06 rev/day^2 Epoch rev: 22700 Checksum: 305
Satellite: CAPE1 Catalog number: 31130 Epoch time: 11209.49477960 Element set: 234 Inclination: 097.8988 deg RA of node: 231.0892 deg Eccentricity: 0.0103283 Arg of perigee: 053.3574 deg Mean anomaly: 307.7068 deg Mean motion: 14.52429010 rev/day Decay rate: 2.72e-06 rev/day^2 Epoch rev: 22663 Checksum: 293
Satellite: COMPASS Catalog number: 32787 Epoch time: 11209.65319465 Element set: 50 Inclination: 097.8453 deg RA of node: 272.6939 deg Eccentricity: 0.0016615 Arg of perigee: 043.3728 deg Mean anomaly: 316.8795 deg Mean motion: 14.82510222 rev/day Decay rate: 2.96e-06 rev/day^2 Epoch rev: 17570 Checksum: 316
Satellite: AAUSAT2 Catalog number: 32788 Epoch time: 11208.66680521 Element set: 0042 Inclination: 097.8456 deg RA of node: 271.9632 deg Eccentricity: 0.0016043 Arg of perigee: 048.7169 deg Mean anomaly: 311.5456 deg Mean motion: 14.82699543 rev/day Decay rate: 2.77e-06 rev/day^2 Epoch rev: 17557 Checksum: 326
Satellite: DO-64 Catalog number: 32789 Epoch time: 11208.73031391 Element set: 0058 Inclination: 097.8553 deg RA of node: 273.1088 deg Eccentricity: 0.0016217 Arg of perigee: 045.7981 deg Mean anomaly: 314.4560 deg Mean motion: 14.83216409 rev/day Decay rate: 7.53e-06 rev/day^2 Epoch rev: 17559 Checksum: 321
Satellite: CO-66 Catalog number: 32791 Epoch time: 11208.73359020 Element set: 0045 Inclination: 097.8447 deg RA of node: 271.7187 deg Eccentricity: 0.0017000 Arg of perigee: 046.3449 deg Mean anomaly: 313.9166 deg Mean motion: 14.82187617 rev/day Decay rate: 4.23e-06 rev/day^2 Epoch rev: 17551 Checksum: 306
Satellite: RS-30 Catalog number: 32953 Epoch time: 11209.76018471 Element set: 943 Inclination: 082.5040 deg RA of node: 136.8834 deg Eccentricity: 0.0018066 Arg of perigee: 300.4007 deg Mean anomaly: 059.5289 deg Mean motion: 12.43014387 rev/day Decay rate: 1.0e-07 rev/day^2 Epoch rev: 14425 Checksum: 274
Satellite: TACSAT-3 Catalog number: 35001 Epoch time: 11208.65803414 Element set: 653 Inclination: 040.4538 deg RA of node: 286.7596 deg Eccentricity: 0.0020380 Arg of perigee: 153.9799 deg Mean anomaly: 206.2047 deg Mean motion: 15.50143125 rev/day Decay rate: 1.2048e-04 rev/day^2 Epoch rev: 12336 Checksum: 278
Satellite: PHARMSAT Catalog number: 35002 Epoch time: 11209.60531062 Element set: 609 Inclination: 040.4702 deg RA of node: 279.0066 deg Eccentricity: 0.0022210 Arg of perigee: 169.0008 deg Mean anomaly: 191.1300 deg Mean motion: 15.49547655 rev/day Decay rate: 8.886e-05 rev/day^2 Epoch rev: 12353 Checksum: 257
Satellite: HAWKSAT1 Catalog number: 35003 Epoch time: 11209.41493037 Element set: 700 Inclination: 040.4522 deg RA of node: 243.8447 deg Eccentricity: 0.0016395 Arg of perigee: 185.8379 deg Mean anomaly: 174.2241 deg Mean motion: 15.71188686 rev/day Decay rate: 6.3139e-04 rev/day^2 Epoch rev: 12390 Checksum: 293
Satellite: CP6 Catalog number: 35004 Epoch time: 11209.45257431 Element set: 705 Inclination: 040.4505 deg RA of node: 231.2913 deg Eccentricity: 0.0014903 Arg of perigee: 181.7561 deg Mean anomaly: 178.3218 deg Mean motion: 15.82936479 rev/day Decay rate: 1.45612e-03 rev/day^2 Epoch rev: 12403 Checksum: 278
